Simultaneous Nadir Overpasses (SNOs) Predictions

Prediction of SNOs between NOAA-19 and TERRA Satellite Orbit:

Table of predicted SNOs for the next 14.0 days since TLE Epoch: 3/2/2019
Index Date (NOAA-19) Time (NOAA-19) Lat,Lon (NOAA-19) SZA (NOAA-19 ) Date (TERRA) Time (TERRA) Lat,Lon (TERRA) SZA (TERRA ) Distance(km) Time Diff (sec)
1 03/02/2019 19:28:00 78.11, -91.66 85.67 03/02/2019 19:28:50 78.12, -91.60 85.70 2.04 50
2 03/02/2019 20:19:04 -78.09, 75.70 94.36 03/02/2019 20:18:19 -78.05, 75.69 94.41 4.33 45
3 03/05/2019 01:01:33 -78.14, 4.87 95.16 03/05/2019 01:02:40 -78.11, 4.90 95.17 2.76 67
4 03/05/2019 01:52:28 78.08, 172.50 84.79 03/05/2019 01:52:06 78.11, 172.51 84.82 3.54 22
5 03/07/2019 07:26:01 -78.12, -91.05 96.04 03/07/2019 07:25:58 -78.08, -91.07 96.08 4.05 3
6 03/09/2019 12:59:26 78.12, 5.65 83.12 03/09/2019 12:59:48 78.15, 5.75 83.15 3.20 22
7 03/09/2019 13:50:29 -78.10, 173.01 96.91 03/09/2019 13:49:17 -78.08, 173.08 96.95 3.18 72
8 03/11/2019 18:32:57 -78.13, 102.35 97.75 03/11/2019 18:33:43 -78.13, 102.20 97.74 3.31 46
9 03/11/2019 19:23:54 78.10, -90.21 82.23 03/11/2019 19:23:09 78.12, -90.19 82.24 2.95 45
10 03/14/2019 00:06:25 78.21,-161.46 81.45 03/14/2019 00:07:37 78.15,-161.18 81.42 9.56 72




NCC Satellite Simultaneous Nadir Overpasses (SNOs) Prediction Service
